| time (UTC) | temp C | wind direction | speed KPH | gust KPH | rain 1hr cm | rain 24hr cm | rain mn cm | humidity % | barometer mb |
| 20260906232518 | 17 | 317 | 9.7 | 19.3 | 0.00 | 0.23 | 0.18 | 75 | 1015.8 |
| 20260906232018 | 17 | 355 | 9.7 | 17.7 | 0.00 | 0.23 | 0.18 | 74 | 1015.9 |
| 20260906231543 | 18 | 298 | 3.2 | 14.5 | 0.00 | 0.23 | 0.18 | 75 | 1016.0 |
| 20260906231017 | 17 | 340 | 1.6 | 22.5 | 0.00 | 0.23 | 0.18 | 76 | 1016.2 |
| 20260906230518 | 17 | 329 | 11.3 | 22.5 | 0.00 | 0.23 | 0.18 | 76 | 1016.2 |
| 20260906230038 | 17 | 340 | 4.8 | 14.5 | 0.00 | 0.23 | 0.18 | 76 | 1016.4 |
| 20260906225518 | 17 | 322 | 9.7 | 16.1 | 0.00 | 0.23 | 0.18 | 76 | 1016.4 |
| 20260906225022 | 17 | 321 | 8.0 | 16.1 | 0.00 | 0.23 | 0.18 | 77 | 1016.6 |
| 20260906224554 | 16 | 273 | 9.7 | 16.1 | 0.00 | 0.23 | 0.18 | 78 | 1016.6 |
| 20260906224017 | 16 | 303 | 11.3 | 16.1 | 0.00 | 0.23 | 0.18 | 78 | 1016.7 |
| 20260906223520 | 16 | 253 | 9.7 | 14.5 | 0.00 | 0.23 | 0.18 | 78 | 1016.7 |
| 20260906223046 | 16 | 257 | 9.7 | 16.1 | 0.00 | 0.23 | 0.18 | 79 | 1016.8 |
| 20260906222520 | 16 | 254 | 9.7 | 19.3 | 0.00 | 0.23 | 0.18 | 79 | 1016.7 |
| 20260906222022 | 16 | 242 | 11.3 | 19.3 | 0.00 | 0.23 | 0.18 | 80 | 1016.8 |
| 20260906221545 | 16 | 236 | 11.3 | 17.7 | 0.00 | 0.23 | 0.18 | 80 | 1016.6 |
| 20260906221017 | 16 | 232 | 11.3 | 17.7 | 0.00 | 0.23 | 0.18 | 80 | 1016.8 |
| 20260906220517 | 16 | 229 | 11.3 | 16.1 | 0.00 | 0.23 | 0.18 | 81 | 1016.9 |
| 20260906220045 | 16 | 242 | 11.3 | 16.1 | 0.00 | 0.23 | 0.18 | 81 | 1016.9 |
| 20260906215522 | 16 | 250 | 9.7 | 14.5 | 0.00 | 0.23 | 0.18 | 81 | 1017.0 |
| 20260906215018 | 16 | 244 | 9.7 | 14.5 | 0.00 | 0.23 | 0.18 | 81 | 1016.9 |
| 20260906214548 | 16 | 213 | 9.7 | 16.1 | 0.00 | 0.23 | 0.18 | 82 | 1016.9 |
| 20260906214017 | 16 | 248 | 8.0 | 16.1 | 0.00 | 0.23 | 0.18 | 82 | 1016.9 |
| 20260906213519 | 16 | 250 | 9.7 | 16.1 | 0.00 | 0.23 | 0.18 | 82 | 1016.7 |
| 20260906213044 | 16 | 232 | 9.7 | 16.1 | 0.00 | 0.23 | 0.18 | 82 | 1016.8 |
| 20260906212519 | 16 | 241 | 9.7 | 16.1 | 0.00 | 0.23 | 0.18 | 82 | 1016.8 |
| 20260906212019 | 16 | 250 | 9.7 | 14.5 | 0.00 | 0.23 | 0.18 | 83 | 1016.7 |
| 20260906211548 | 16 | 243 | 9.7 | 16.1 | 0.00 | 0.23 | 0.18 | 82 | 1016.7 |
| 20260906211019 | 16 | 244 | 9.7 | 17.7 | 0.00 | 0.23 | 0.18 | 83 | 1016.7 |
| 20260906210519 | 16 | 259 | 9.7 | 16.1 | 0.00 | 0.23 | 0.18 | 83 | 1016.5 |
| 20260906210058 | 16 | 249 | 9.7 | 14.5 | 0.00 | 0.23 | 0.18 | 83 | 1016.6 |
| 20260906205518 | 16 | 256 | 11.3 | 24.1 | 0.00 | 0.23 | 0.18 | 83 | 1016.5 |
| 20260906205017 | 16 | 242 | 11.3 | 24.1 | 0.00 | 0.23 | 0.18 | 83 | 1016.5 |
| 20260906204547 | 16 | 213 | 12.9 | 22.5 | 0.00 | 0.23 | 0.18 | 83 | 1016.5 |
| 20260906204017 | 16 | 250 | 11.3 | 19.3 | 0.00 | 0.23 | 0.18 | 82 | 1016.6 |
| 20260906203518 | 16 | 224 | 12.9 | 19.3 | 0.00 | 0.23 | 0.18 | 81 | 1016.6 |
| 20260906203043 | 16 | 297 | 16.1 | 20.9 | 0.00 | 0.23 | 0.18 | 80 | 1016.8 |
| 20260906202517 | 16 | 302 | 8.0 | 19.3 | 0.00 | 0.23 | 0.18 | 79 | 1016.8 |
| 20260906202019 | 17 | 347 | 9.7 | 19.3 | 0.00 | 0.23 | 0.18 | 78 | 1016.8 |
| 20260906201543 | 17 | 15 | 1.6 | 12.9 | 0.00 | 0.23 | 0.18 | 76 | 1016.8 |
| 20260906201025 | 17 | 98 | 6.4 | 14.5 | 0.00 | 0.23 | 0.18 | 76 | 1016.8 |
| 20260906200519 | 17 | 93 | 8.0 | 14.5 | 0.00 | 0.23 | 0.18 | 76 | 1016.8 |
| 20260906200052 | 17 | 92 | 4.8 | 11.3 | 0.00 | 0.23 | 0.18 | 75 | 1016.8 |
| 20260906195517 | 17 | 68 | 6.4 | 16.1 | 0.00 | 0.23 | 0.18 | 75 | 1016.7 |
| 20260906195017 | 17 | 82 | 4.8 | 16.1 | 0.00 | 0.23 | 0.18 | 76 | 1016.6 |
| 20260906194547 | 17 | 119 | 1.6 | 11.3 | 0.00 | 0.23 | 0.18 | 75 | 1016.8 |
| 20260906194019 | 17 | 153 | 0.0 | 8.0 | 0.00 | 0.23 | 0.18 | 74 | 1016.9 |
| 20260906193521 | 17 | 153 | 0.0 | 6.4 | 0.00 | 0.23 | 0.18 | 74 | 1017.0 |
| 20260906193045 | 17 | 174 | 1.6 | 8.0 | 0.00 | 0.23 | 0.18 | 75 | 1017.0 |
| 20260906192519 | 17 | 96 | 0.0 | 6.4 | 0.00 | 0.23 | 0.18 | 74 | 1017.0 |
| 20260906192019 | 17 | 89 | 1.6 | 8.0 | 0.00 | 0.23 | 0.18 | 75 | 1017.0 |
| 20260906191546 | 17 | 78 | 3.2 | 6.4 | 0.00 | 0.23 | 0.18 | 75 | 1017.0 |
| 20260906191018 | 17 | 83 | 1.6 | 12.9 | 0.00 | 0.23 | 0.18 | 75 | 1017.0 |
| 20260906190518 | 17 | 94 | 6.4 | 14.5 | 0.00 | 0.23 | 0.18 | 75 | 1017.0 |
| 20260906190047 | 17 | 44 | 6.4 | 11.3 | 0.00 | 0.23 | 0.18 | 76 | 1017.0 |
| 20260906185519 | 17 | 47 | 8.0 | 19.3 | 0.00 | 0.23 | 0.18 | 76 | 1017.0 |
| 20260906185019 | 17 | 73 | 11.3 | 20.9 | 0.00 | 0.23 | 0.18 | 77 | 1017.0 |
| 20260906184546 | 16 | 59 | 12.9 | 20.9 | 0.00 | 0.23 | 0.18 | 76 | 1017.0 |
| 20260906184019 | 16 | 59 | 12.9 | 22.5 | 0.00 | 0.23 | 0.18 | 79 | 1016.9 |
| 20260906183522 | 16 | 34 | 16.1 | 29.0 | 0.00 | 0.23 | 0.18 | 82 | 1016.9 |
| 20260906183044 | 16 | 40 | 16.1 | 29.0 | 0.00 | 0.23 | 0.18 | 82 | 1016.9 |
| 20260906182522 | 16 | 67 | 19.3 | 25.7 | 0.00 | 0.23 | 0.18 | 83 | 1016.7 |
| 20260906182020 | 16 | 72 | 16.1 | 24.1 | 0.00 | 0.23 | 0.18 | 85 | 1017.1 |
| 20260906181555 | 15 | 55 | 17.7 | 24.1 | 0.00 | 0.23 | 0.18 | 85 | 1017.1 |
| 20260906181016 | 15 | 42 | 14.5 | 22.5 | 0.03 | 0.23 | 0.18 | 86 | 1017.1 |
| 20260906180520 | 15 | 31 | 14.5 | 22.5 | 0.03 | 0.23 | 0.18 | 88 | 1017.4 |
| 20260906180051 | 15 | 5 | 16.1 | 22.5 | 0.03 | 0.23 | 0.18 | 89 | 1017.3 |
| 20260906175518 | 14 | 352 | 16.1 | 22.5 | 0.03 | 0.23 | 0.18 | 89 | 1017.4 |
| 20260906175020 | 14 | 5 | 17.7 | 25.7 | 0.03 | 0.23 | 0.18 | 90 | 1017.5 |
| 20260906174544 | 13 | 360 | 16.1 | 25.7 | 0.03 | 0.23 | 0.18 | 90 | 1017.4 |
| 20260906174020 | 13 | 13 | 16.1 | 24.1 | 0.03 | 0.23 | 0.18 | 91 | 1017.4 |
| 20260906173519 | 13 | 13 | 17.7 | 27.4 | 0.03 | 0.23 | 0.18 | 91 | 1017.8 |
| 20260906173100 | 13 | 41 | 19.3 | 29.0 | 0.03 | 0.23 | 0.18 | 91 | 1017.9 |
| 20260906172516 | 12 | 23 | 20.9 | 30.6 | 0.03 | 0.23 | 0.18 | 91 | 1018.1 |
| 20260906172022 | 12 | 19 | 24.1 | 30.6 | 0.03 | 0.23 | 0.18 | 92 | 1017.9 |
| 20260906171550 | 12 | 15 | 17.7 | 25.7 | 0.03 | 0.23 | 0.18 | 91 | 1018.1 |
| 20260906171024 | 12 | 330 | 19.3 | 25.7 | 0.00 | 0.20 | 0.15 | 91 | 1018.4 |
| 20260906170517 | 12 | 304 | 16.1 | 32.2 | 0.00 | 0.20 | 0.15 | 91 | 1018.9 |
| 20260906170045 | 12 | 294 | 14.5 | 29.0 | 0.00 | 0.20 | 0.15 | 91 | 1019.0 |
| 20260906165518 | 12 | 304 | 22.5 | 32.2 | 0.00 | 0.20 | 0.15 | 91 | 1018.9 |
| 20260906165018 | 12 | 279 | 9.7 | 32.2 | 0.00 | 0.20 | 0.15 | 91 | 1019.0 |
| 20260906164545 | 12 | 262 | 25.7 | 32.2 | 0.00 | 0.20 | 0.15 | 91 | 1018.8 |
| 20260906164020 | 13 | 254 | 16.1 | 27.4 | 0.00 | 0.20 | 0.15 | 91 | 1018.8 |
| 20260906163519 | 13 | 260 | 8.0 | 11.3 | 0.00 | 0.20 | 0.15 | 92 | 1018.8 |
| 20260906163052 | 13 | 333 | 0.0 | 12.9 | 0.00 | 0.20 | 0.15 | 92 | 1018.7 |
| 20260906162519 | 12 | 347 | 6.4 | 16.1 | 0.00 | 0.20 | 0.15 | 91 | 1018.8 |
| 20260906162017 | 12 | 355 | 9.7 | 20.9 | 0.00 | 0.20 | 0.15 | 91 | 1018.5 |
| 20260906161546 | 12 | 352 | 14.5 | 25.7 | 0.00 | 0.20 | 0.15 | 91 | 1018.5 |
| 20260906161023 | 12 | 342 | 16.1 | 25.7 | 0.00 | 0.20 | 0.15 | 91 | 1018.3 |
| 20260906160518 | 12 | 337 | 17.7 | 25.7 | 0.00 | 0.20 | 0.15 | 91 | 1018.4 |
| 20260906160057 | 12 | 348 | 16.1 | 25.7 | 0.00 | 0.20 | 0.15 | 92 | 1018.6 |
| 20260906155517 | 12 | 346 | 12.9 | 20.9 | 0.03 | 0.20 | 0.15 | 92 | 1018.7 |
| 20260906155022 | 12 | 335 | 14.5 | 19.3 | 0.03 | 0.20 | 0.15 | 93 | 1018.7 |
| 20260906154557 | 11 | 344 | 12.9 | 20.9 | 0.03 | 0.20 | 0.15 | 92 | 1019.1 |
| 20260906154018 | 11 | 327 | 14.5 | 24.1 | 0.03 | 0.20 | 0.15 | 92 | 1019.1 |
| 20260906153523 | 11 | 304 | 19.3 | 24.1 | 0.03 | 0.20 | 0.15 | 92 | 1019.1 |
| 20260906153046 | 11 | 324 | 16.1 | 25.7 | 0.05 | 0.20 | 0.15 | 92 | 1019.3 |
| 20260906152521 | 11 | 311 | 17.7 | 25.7 | 0.05 | 0.20 | 0.15 | 92 | 1019.4 |
| 20260906152021 | 11 | 304 | 17.7 | 29.0 | 0.05 | 0.20 | 0.15 | 92 | 1019.3 |
| 20260906151545 | 11 | 323 | 19.3 | 32.2 | 0.10 | 0.20 | 0.15 | 93 | 1019.2 |
| 20260906151018 | 11 | 320 | 24.1 | 32.2 | 0.15 | 0.20 | 0.15 | 93 | 1019.2 |
| 20260906150518 | 11 | 311 | 22.5 | 37.0 | 0.15 | 0.20 | 0.15 | 93 | 1019.2 |
| 20260906150040 | 11 | 296 | 22.5 | 37.0 | 0.15 | 0.20 | 0.15 | 93 | 1019.2 |
| 20260906145520 | 11 | 303 | 25.7 | 35.4 | 0.10 | 0.20 | 0.10 | 92 | 1019.4 |
| 20260906145016 | 11 | 323 | 20.9 | 33.8 | 0.10 | 0.20 | 0.10 | 92 | 1019.4 |
| 20260906144550 | 11 | 278 | 19.3 | 32.2 | 0.10 | 0.20 | 0.10 | 92 | 1019.6 |
| 20260906144021 | 11 | 287 | 24.1 | 38.6 | 0.10 | 0.20 | 0.10 | 92 | 1019.6 |
| 20260906143517 | 11 | 290 | 29.0 | 41.8 | 0.10 | 0.20 | 0.10 | 91 | 1019.4 |
| 20260906143106 | 11 | 310 | 27.4 | 45.1 | 0.10 | 0.18 | 0.10 | 91 | 1019.6 |
| 20260906142522 | 11 | 284 | 25.7 | 45.1 | 0.10 | 0.18 | 0.10 | 90 | 1019.9 |
| 20260906142020 | 12 | 272 | 27.4 | 41.8 | 0.08 | 0.15 | 0.08 | 89 | 1019.9 |
| 20260906141555 | 12 | 282 | 24.1 | 38.6 | 0.05 | 0.10 | 0.05 | 88 | 1019.8 |
| 20260906141019 | 13 | 213 | 12.9 | 29.0 | 0.00 | 0.08 | 0.00 | 88 | 1019.6 |
| 20260906140521 | 12 | 257 | 12.9 | 27.4 | 0.00 | 0.08 | 0.00 | 87 | 1019.5 |
| 20260906140051 | 13 | 241 | 17.7 | 27.4 | 0.00 | 0.08 | 0.00 | 83 | 1019.5 |
| 20260906135518 | 15 | 257 | 3.2 | 14.5 | 0.00 | 0.20 | 0.00 | 84 | 1019.8 |
| 20260906135018 | 15 | 54 | 6.4 | 14.5 | 0.00 | 0.20 | 0.00 | 84 | 1019.2 |
| 20260906134551 | 15 | 59 | 9.7 | 17.7 | 0.00 | 0.20 | 0.00 | 83 | 1019.1 |
| 20260906134017 | 15 | 67 | 12.9 | 17.7 | 0.00 | 0.20 | 0.00 | 83 | 1019.1 |
| 20260906133520 | 15 | 54 | 9.7 | 16.1 | 0.00 | 0.20 | 0.00 | 82 | 1019.0 |
| 20260906133050 | 15 | 59 | 9.7 | 19.3 | 0.00 | 0.20 | 0.00 | 82 | 1019.1 |
| 20260906132517 | 15 | 61 | 9.7 | 22.5 | 0.00 | 0.20 | 0.00 | 81 | 1019.1 |
| 20260906132017 | 15 | 61 | 16.1 | 25.7 | 0.00 | 0.20 | 0.00 | 81 | 1019.0 |
| 20260906131554 | 15 | 51 | 16.1 | 25.7 | 0.00 | 0.20 | 0.00 | 80 | 1019.0 |
| 20260906131019 | 15 | 47 | 12.9 | 22.5 | 0.00 | 0.20 | 0.00 | 80 | 1018.9 |
| 20260906130519 | 15 | 43 | 12.9 | 19.3 | 0.00 | 0.20 | 0.00 | 80 | 1018.9 |
| 20260906130052 | 15 | 35 | 6.4 | 16.1 | 0.00 | 0.20 | 0.00 | 80 | 1019.0 |
| 20260906125517 | 14 | 360 | 4.8 | 16.1 | 0.00 | 0.20 | 0.00 | 80 | 1019.0 |
| 20260906125020 | 14 | 311 | 8.0 | 17.7 | 0.00 | 0.20 | 0.00 | 82 | 1019.2 |
| 20260906124552 | 13 | 340 | 8.0 | 25.7 | 0.00 | 0.20 | 0.00 | 82 | 1019.0 |
| 20260906124020 | 14 | 333 | 16.1 | 25.7 | 0.00 | 0.20 | 0.00 | 79 | 1019.3 |
| 20260906123519 | 15 | 340 | 9.7 | 22.5 | 0.00 | 0.20 | 0.00 | 79 | 1019.4 |
| 20260906123054 | 15 | 360 | 16.1 | 30.6 | 0.00 | 0.20 | 0.00 | 79 | 1019.1 |
| 20260906122518 | 15 | 18 | 19.3 | 41.8 | 0.00 | 0.20 | 0.00 | 80 | 1018.5 |
| 20260906122018 | 15 | 27 | 16.1 | 43.5 | 0.00 | 0.20 | 0.00 | 81 | 1019.2 |
| 20260906121552 | 14 | 337 | 24.1 | 43.5 | 0.00 | 0.20 | 0.00 | 85 | 1018.7 |
| 20260906121020 | 13 | 344 | 20.9 | 29.0 | 0.00 | 0.20 | 0.00 | 87 | 1018.9 |
| 20260906120518 | 12 | 340 | 14.5 | 27.4 | 0.00 | 0.20 | 0.00 | 86 | 1019.2 |
| 20260906120048 | 13 | 298 | 20.9 | 27.4 | 0.00 | 0.20 | 0.00 | 83 | 1019.2 |
| 20260906115516 | 14 | 28 | 14.5 | 24.1 | 0.00 | 0.20 | 0.00 | 85 | 1018.8 |
| 20260906115020 | 13 | 27 | 14.5 | 22.5 | 0.00 | 0.20 | 0.00 | 85 | 1018.9 |
| 20260906114549 | 13 | 51 | 9.7 | 19.3 | 0.00 | 0.20 | 0.00 | 85 | 1019.2 |
| 20260906114023 | 13 | 39 | 6.4 | 9.7 | 0.00 | 0.20 | 0.00 | 84 | 1019.3 |
| 20260906113520 | 13 | 39 | 3.2 | 6.4 | 0.00 | 0.20 | 0.00 | 84 | 1019.6 |
| 20260906113048 | 13 | 29 | 0.0 | 8.0 | 0.00 | 0.20 | 0.00 | 83 | 1019.5 |
| 20260906112519 | 13 | 18 | 3.2 | 12.9 | 0.00 | 0.20 | 0.00 | 83 | 1019.4 |
| 20260906112024 | 13 | 25 | 4.8 | 16.1 | 0.00 | 0.20 | 0.00 | 83 | 1019.5 |
| 20260906111550 | 13 | 17 | 11.3 | 17.7 | 0.00 | 0.20 | 0.00 | 83 | 1019.2 |
| 20260906111018 | 13 | 21 | 9.7 | 17.7 | 0.00 | 0.20 | 0.00 | 83 | 1019.3 |
| 20260906110516 | 13 | 22 | 11.3 | 17.7 | 0.00 | 0.20 | 0.00 | 82 | 1019.1 |
| 20260906110044 | 13 | 31 | 9.7 | 16.1 | 0.00 | 0.20 | 0.00 | 83 | 1019.2 |
| 20260906105523 | 13 | 47 | 8.0 | 11.3 | 0.00 | 0.20 | 0.00 | 84 | 1019.1 |
| 20260906105021 | 12 | 67 | 3.2 | 8.0 | 0.00 | 0.20 | 0.00 | 86 | 1019.2 |
| 20260906104545 | 12 | 32 | 0.0 | 6.4 | 0.00 | 0.20 | 0.00 | 87 | 1018.9 |
| 20260906104019 | 12 | 250 | 0.0 | 3.2 | 0.00 | 0.20 | 0.00 | 89 | 1019.1 |
| 20260906103517 | 12 | 250 | 0.0 | 1.6 | 0.00 | 0.20 | 0.00 | 89 | 1019.3 |
| 20260906103055 | 12 | 360 | 0.0 | 0.0 | 0.00 | 0.20 | 0.00 | 88 | 1019.4 |
| 20260906102517 | 12 | 360 | 0.0 | 8.0 | 0.00 | 0.20 | 0.00 | 88 | 1019.3 |
| 20260906102019 | 12 | 360 | 0.0 | 8.0 | 0.00 | 0.20 | 0.00 | 88 | 1019.4 |
| 20260906101553 | 12 | 348 | 4.8 | 8.0 | 0.00 | 0.20 | 0.00 | 88 | 1019.3 |
| 20260906101018 | 12 | 10 | 3.2 | 8.0 | 0.00 | 0.20 | 0.00 | 88 | 1019.2 |
| 20260906100519 | 12 | 360 | 4.8 | 8.0 | 0.00 | 0.20 | 0.00 | 88 | 1019.3 |
| 20260906100046 | 13 | 5 | 4.8 | 14.5 | 0.00 | 0.20 | 0.00 | 88 | 1019.5 |
| 20260906095520 | 13 | 360 | 9.7 | 16.1 | 0.00 | 0.20 | 0.00 | 88 | 1019.5 |
| 20260906095018 | 13 | 352 | 9.7 | 16.1 | 0.00 | 0.20 | 0.00 | 88 | 1019.5 |
| 20260906094556 | 12 | 347 | 8.0 | 22.5 | 0.00 | 0.20 | 0.00 | 88 | 1019.4 |
| 20260906094017 | 13 | 360 | 14.5 | 29.0 | 0.00 | 0.20 | 0.00 | 88 | 1019.4 |
| 20260906093518 | 13 | 5 | 19.3 | 29.0 | 0.00 | 0.20 | 0.00 | 88 | 1019.4 |
| 20260906093113 | 12 | 11 | 16.1 | 25.7 | 0.00 | 0.20 | 0.00 | 89 | 1019.5 |
| 20260906092518 | 12 | 360 | 19.3 | 25.7 | 0.00 | 0.20 | 0.00 | 89 | 1019.5 |
| 20260906092018 | 12 | 344 | 14.5 | 30.6 | 0.00 | 0.20 | 0.00 | 89 | 1019.6 |
| 20260906091550 | 12 | 312 | 19.3 | 30.6 | 0.00 | 0.20 | 0.00 | 89 | 1019.6 |
| 20260906091022 | 12 | 352 | 20.9 | 29.0 | 0.00 | 0.20 | 0.00 | 90 | 1019.7 |
| 20260906090518 | 12 | 340 | 20.9 | 29.0 | 0.00 | 0.20 | 0.00 | 89 | 1019.9 |
| 20260906090048 | 12 | 304 | 19.3 | 29.0 | 0.00 | 0.20 | 0.00 | 88 | 1020.3 |
| 20260906085518 | 13 | 320 | 17.7 | 32.2 | 0.00 | 0.20 | 0.00 | 88 | 1020.4 |
| 20260906085023 | 13 | 311 | 20.9 | 32.2 | 0.00 | 0.20 | 0.00 | 88 | 1020.6 |
| 20260906084555 | 13 | 284 | 17.7 | 37.0 | 0.00 | 0.20 | 0.00 | 88 | 1020.7 |
| 20260906084020 | 13 | 316 | 25.7 | 38.6 | 0.00 | 0.20 | 0.00 | 87 | 1020.7 |
| 20260906083520 | 13 | 317 | 29.0 | 38.6 | 0.00 | 0.20 | 0.00 | 87 | 1020.2 |
| 20260906083053 | 13 | 292 | 22.5 | 41.8 | 0.00 | 0.20 | 0.00 | 87 | 1020.4 |
| 20260906082519 | 13 | 296 | 30.6 | 41.8 | 0.00 | 0.20 | 0.00 | 89 | 1020.1 |
| 20260906082018 | 12 | 267 | 16.1 | 40.2 | 0.00 | 0.20 | 0.00 | 90 | 1021.1 |
| 20260906081554 | 12 | 267 | 27.4 | 40.2 | 0.00 | 0.20 | 0.00 | 90 | 1020.9 |
| 20260906081021 | 12 | 236 | 16.1 | 29.0 | 0.00 | 0.20 | 0.00 | 90 | 1020.9 |
| 20260906080519 | 12 | 330 | 17.7 | 35.4 | 0.00 | 0.20 | 0.00 | 90 | 1020.2 |
| 20260906080100 | 12 | 5 | 25.7 | 32.2 | 0.00 | 0.20 | 0.00 | 90 | 1019.8 |
| 20260906075518 | 12 | 327 | 24.1 | 32.2 | 0.00 | 0.20 | 0.00 | 89 | 1019.6 |
| 20260906075020 | 12 | 325 | 20.9 | 32.2 | 0.00 | 0.20 | 0.00 | 89 | 1019.8 |
| 20260906074555 | 13 | 321 | 20.9 | 27.4 | 0.00 | 0.20 | 0.00 | 89 | 1019.8 |
| 20260906074026 | 13 | 302 | 17.7 | 22.5 | 0.00 | 0.20 | 0.00 | 89 | 1019.9 |
| 20260906073520 | 13 | 347 | 12.9 | 20.9 | 0.00 | 0.20 | 0.00 | 89 | 1020.1 |
| 20260906073056 | 12 | 343 | 14.5 | 20.9 | 0.00 | 0.20 | 0.00 | 89 | 1019.9 |
| 20260906072520 | 12 | 23 | 9.7 | 30.6 | 0.00 | 0.20 | 0.00 | 89 | 1019.9 |
| 20260906072019 | 13 | 360 | 24.1 | 35.4 | 0.00 | 0.20 | 0.00 | 89 | 1019.8 |
| 20260906071559 | 13 | 351 | 27.4 | 38.6 | 0.00 | 0.20 | 0.00 | 89 | 1019.9 |
| 20260906071021 | 13 | 352 | 30.6 | 38.6 | 0.00 | 0.20 | 0.00 | 88 | 1019.8 |
| 20260906070520 | 13 | 5 | 27.4 | 38.6 | 0.00 | 0.20 | 0.00 | 88 | 1020.0 |
| 20260906070043 | 13 | 342 | 29.0 | 38.6 | 0.00 | 0.20 | 0.00 | 88 | 1020.0 |
| 20260906065518 | 13 | 360 | 29.0 | 37.0 | 0.00 | 0.20 | 0.00 | 88 | 1020.0 |
| 20260906065020 | 13 | 338 | 25.7 | 35.4 | 0.00 | 0.20 | 0.00 | 89 | 1020.3 |
| 20260906064555 | 13 | 360 | 25.7 | 35.4 | 0.00 | 0.20 | 0.00 | 89 | 1020.7 |
| 20260906064021 | 12 | 338 | 22.5 | 30.6 | 0.00 | 0.20 | 0.00 | 89 | 1020.6 |
| 20260906063519 | 12 | 311 | 22.5 | 33.8 | 0.00 | 0.20 | 0.00 | 89 | 1020.6 |
| 20260906063046 | 12 | 325 | 25.7 | 37.0 | 0.00 | 0.20 | 0.00 | 89 | 1020.7 |
| 20260906062517 | 12 | 316 | 29.0 | 37.0 | 0.00 | 0.20 | 0.00 | 89 | 1020.7 |
| 20260906062020 | 12 | 300 | 29.0 | 38.6 | 0.00 | 0.20 | 0.00 | 89 | 1020.9 |
| 20260906061555 | 12 | 318 | 30.6 | 38.6 | 0.00 | 0.20 | 0.00 | 88 | 1020.9 |
| 20260906061019 | 12 | 288 | 27.4 | 35.4 | 0.00 | 0.20 | 0.00 | 88 | 1021.0 |
| 20260906060517 | 13 | 300 | 20.9 | 30.6 | 0.00 | 0.20 | 0.00 | 87 | 1021.1 |
| 20260906060053 | 13 | 333 | 22.5 | 30.6 | 0.00 | 0.20 | 0.00 | 87 | 1020.7 |
| 20260906055519 | 13 | 348 | 20.9 | 29.0 | 0.00 | 0.20 | 0.20 | 87 | 1020.6 |
| 20260906055026 | 13 | 352 | 19.3 | 32.2 | 0.00 | 0.20 | 0.20 | 87 | 1020.8 |
| 20260906054554 | 13 | 346 | 20.9 | 33.8 | 0.00 | 0.20 | 0.20 | 87 | 1020.9 |
| 20260906054021 | 12 | 337 | 25.7 | 37.0 | 0.00 | 0.20 | 0.20 | 87 | 1020.4 |
| 20260906053520 | 12 | 337 | 25.7 | 37.0 | 0.00 | 0.20 | 0.20 | 86 | 1020.6 |
| 20260906053053 | 12 | 324 | 25.7 | 33.8 | 0.00 | 0.20 | 0.20 | 86 | 1020.4 |
| 20260906052520 | 13 | 344 | 20.9 | 33.8 | 0.00 | 0.20 | 0.20 | 87 | 1020.4 |
| 20260906052018 | 12 | 352 | 22.5 | 32.2 | 0.00 | 0.20 | 0.20 | 87 | 1020.6 |
| 20260906051555 | 12 | 334 | 19.3 | 25.7 | 0.00 | 0.20 | 0.20 | 87 | 1020.7 |
| 20260906051019 | 13 | 339 | 20.9 | 25.7 | 0.00 | 0.20 | 0.20 | 86 | 1020.4 |
| 20260906050522 | 13 | 342 | 19.3 | 29.0 | 0.00 | 0.20 | 0.20 | 86 | 1020.5 |
| 20260906050131 | 13 | 352 | 22.5 | 29.0 | 0.00 | 0.20 | 0.20 | 86 | 1020.7 |
| 20260906045522 | 13 | 323 | 19.3 | 27.4 | 0.00 | 0.20 | 0.20 | 87 | 1020.7 |
| 20260906045023 | 13 | 307 | 20.9 | 25.7 | 0.00 | 0.20 | 0.20 | 86 | 1020.5 |
| 20260906044556 | 13 | 328 | 17.7 | 22.5 | 0.00 | 0.20 | 0.20 | 86 | 1020.6 |
| 20260906044017 | 13 | 329 | 9.7 | 17.7 | 0.00 | 0.20 | 0.20 | 86 | 1021.3 |
| 20260906043519 | 13 | 329 | 9.7 | 22.5 | 0.00 | 0.20 | 0.20 | 86 | 1020.8 |
| 20260906043050 | 13 | 340 | 17.7 | 22.5 | 0.00 | 0.20 | 0.20 | 86 | 1020.3 |
| 20260906042519 | 13 | 340 | 14.5 | 25.7 | 0.03 | 0.20 | 0.20 | 87 | 1020.2 |
| 20260906042017 | 13 | 351 | 17.7 | 29.0 | 0.05 | 0.20 | 0.20 | 87 | 1019.8 |
| 20260906041543 | 12 | 339 | 19.3 | 30.6 | 0.05 | 0.20 | 0.20 | 87 | 1019.5 |
| 20260906041018 | 13 | 329 | 24.1 | 33.8 | 0.05 | 0.20 | 0.20 | 86 | 1019.9 |
| 20260906040519 | 13 | 327 | 24.1 | 33.8 | 0.05 | 0.20 | 0.20 | 87 | 1019.9 |
| 20260906040048 | 12 | 317 | 22.5 | 37.0 | 0.05 | 0.20 | 0.20 | 87 | 1020.1 |
| 20260906035515 | 13 | 337 | 24.1 | 37.0 | 0.05 | 0.20 | 0.20 | 87 | 1019.7 |
| 20260906035016 | 13 | 331 | 25.7 | 38.6 | 0.05 | 0.20 | 0.20 | 85 | 1020.2 |
| 20260906034546 | 13 | 348 | 27.4 | 37.0 | 0.05 | 0.20 | 0.20 | 85 | 1020.1 |
| 20260906034019 | 13 | 348 | 27.4 | 35.4 | 0.05 | 0.20 | 0.20 | 85 | 1020.4 |
| 20260906033519 | 13 | 325 | 20.9 | 29.0 | 0.05 | 0.20 | 0.20 | 83 | 1020.7 |
| 20260906033041 | 13 | 302 | 19.3 | 25.7 | 0.05 | 0.20 | 0.20 | 80 | 1021.0 |
| 20260906032517 | 14 | 306 | 16.1 | 19.3 | 0.00 | 0.15 | 0.15 | 76 | 1021.6 |
| 20260906032019 | 15 | 334 | 9.7 | 19.3 | 0.00 | 0.15 | 0.15 | 73 | 1021.6 |
| 20260906031546 | 15 | 348 | 12.9 | 24.1 | 0.00 | 0.15 | 0.15 | 71 | 1021.5 |
| 20260906031016 | 15 | 333 | 14.5 | 25.7 | 0.00 | 0.15 | 0.15 | 70 | 1020.8 |
| 20260906030519 | 15 | 317 | 17.7 | 27.4 | 0.00 | 0.15 | 0.15 | 70 | 1020.2 |
| 20260906030045 | 15 | 326 | 16.1 | 27.4 | 0.00 | 0.15 | 0.15 | 70 | 1019.8 |
| 20260906025517 | 15 | 360 | 19.3 | 27.4 | 0.00 | 0.15 | 0.15 | 70 | 1019.3 |
| 20260906025019 | 15 | 349 | 17.7 | 29.0 | 0.00 | 0.15 | 0.15 | 70 | 1019.2 |
| 20260906024544 | 15 | 348 | 20.9 | 29.0 | 0.00 | 0.15 | 0.15 | 70 | 1018.8 |
| 20260906024017 | 15 | 355 | 20.9 | 29.0 | 0.00 | 0.15 | 0.15 | 70 | 1018.7 |
| 20260906023516 | 15 | 5 | 20.9 | 32.2 | 0.00 | 0.15 | 0.15 | 70 | 1018.5 |
| 20260906023047 | 15 | 5 | 22.5 | 33.8 | 0.00 | 0.15 | 0.15 | 70 | 1018.4 |
| 20260906022516 | 15 | 352 | 24.1 | 33.8 | 0.00 | 0.15 | 0.15 | 69 | 1018.5 |
| 20260906022018 | 15 | 347 | 22.5 | 32.2 | 0.00 | 0.15 | 0.15 | 69 | 1018.8 |
| 20260906021605 | 16 | 352 | 24.1 | 32.2 | 0.00 | 0.15 | 0.15 | 68 | 1018.6 |
| 20260906021017 | 16 | 345 | 22.5 | 29.0 | 0.00 | 0.15 | 0.15 | 68 | 1018.7 |
| 20260906020521 | 16 | 343 | 17.7 | 25.7 | 0.00 | 0.15 | 0.15 | 68 | 1018.8 |
| 20260906020045 | 16 | 355 | 20.9 | 25.7 | 0.00 | 0.15 | 0.15 | 68 | 1018.7 |
| 20260906015517 | 16 | 346 | 19.3 | 24.1 | 0.00 | 0.15 | 0.15 | 67 | 1018.7 |
| 20260906015018 | 16 | 352 | 17.7 | 25.7 | 0.00 | 0.15 | 0.15 | 67 | 1018.7 |
| 20260906014543 | 16 | 344 | 17.7 | 25.7 | 0.00 | 0.15 | 0.15 | 67 | 1018.8 |
| 20260906014018 | 16 | 351 | 19.3 | 25.7 | 0.00 | 0.15 | 0.15 | 67 | 1018.8 |
| 20260906013519 | 16 | 348 | 17.7 | 25.7 | 0.00 | 0.15 | 0.15 | 67 | 1018.7 |
| 20260906013047 | 16 | 337 | 19.3 | 24.1 | 0.00 | 0.15 | 0.15 | 67 | 1018.9 |
| 20260906012518 | 16 | 337 | 16.1 | 22.5 | 0.00 | 0.15 | 0.15 | 67 | 1018.8 |
| 20260906012021 | 17 | 345 | 16.1 | 27.4 | 0.00 | 0.15 | 0.15 | 67 | 1018.9 |
| 20260906011541 | 17 | 351 | 19.3 | 27.4 | 0.00 | 0.15 | 0.15 | 66 | 1018.7 |
| 20260906011021 | 17 | 340 | 19.3 | 32.2 | 0.00 | 0.15 | 0.15 | 66 | 1018.7 |
| 20260906010519 | 17 | 349 | 22.5 | 33.8 | 0.00 | 0.15 | 0.15 | 66 | 1018.7 |
| 20260906010046 | 17 | 340 | 24.1 | 35.4 | 0.00 | 0.15 | 0.15 | 66 | 1018.7 |
| 20260906005522 | 17 | 350 | 25.7 | 35.4 | 0.00 | 0.15 | 0.15 | 66 | 1018.7 |
| 20260906005019 | 17 | 337 | 22.5 | 33.8 | 0.00 | 0.15 | 0.15 | 66 | 1018.8 |
| 20260906004549 | 17 | 345 | 24.1 | 33.8 | 0.00 | 0.15 | 0.15 | 66 | 1018.7 |
| 20260906004018 | 17 | 344 | 24.1 | 32.2 | 0.00 | 0.15 | 0.15 | 65 | 1018.7 |
| 20260906003522 | 17 | 352 | 22.5 | 32.2 | 0.00 | 0.15 | 0.15 | 63 | 1018.8 |
| 20260906003055 | 18 | 5 | 24.1 | 32.2 | 0.00 | 0.15 | 0.15 | 62 | 1018.9 |
| 20260906002523 | 18 | 352 | 24.1 | 32.2 | 0.00 | 0.15 | 0.15 | 60 | 1018.8 |
| 20260906002020 | 19 | 352 | 19.3 | 27.4 | 0.00 | 0.15 | 0.15 | 58 | 1018.9 |
| 20260906001544 | 19 | 331 | 20.9 | 29.0 | 0.00 | 0.15 | 0.15 | 59 | 1019.0 |
| 20260906001019 | 19 | 342 | 19.3 | 30.6 | 0.00 | 0.15 | 0.15 | 59 | 1019.0 |
| 20260906000519 | 19 | 336 | 20.9 | 30.6 | 0.00 | 0.15 | 0.15 | 57 | 1019.0 |
| 20260906000046 | 19 | 350 | 16.1 | 24.1 | 0.00 | 0.15 | 0.15 | 56 | 1018.9 |
| 20260905235517 | 20 | 323 | 16.1 | 25.7 | 0.00 | 0.15 | 0.15 | 56 | 1019.2 |
| 20260905235018 | 20 | 330 | 19.3 | 25.7 | 0.00 | 0.15 | 0.15 | 56 | 1019.2 |
| 20260905234554 | 20 | 325 | 17.7 | 32.2 | 0.00 | 0.15 | 0.15 | 57 | 1019.4 |
| 20260905234018 | 20 | 306 | 20.9 | 32.2 | 0.00 | 0.15 | 0.15 | 56 | 1019.4 |
| 20260905233518 | 20 | 344 | 16.1 | 29.0 | 0.00 | 0.15 | 0.15 | 56 | 1019.4 |
| 20260905233047 | 20 | 343 | 19.3 | 29.0 | 0.00 | 0.15 | 0.15 | 55 | 1019.5 |